Content
SEND FEEDBACK

Daily
Averages
Monthly
Summary
United States of America

CEDARTOWN, GEORGIA


Home > North America > United States > Georgia
Elevation: 792 feet     Latitude: 34 01N     Longitude: 085 15W

WEATHER
 
SELECT A DAY
Number of Records: 157,636;   Date Range: 3/22/00 - 9/29/14
 
SHARE

PRINT THIS DATA

[ ← Previous Day ]
WEATHER ALMANAC - FEBRUARY 13, 2013
[ Next Day → ]
[ °C ]   °F
Weather ElementAverageHighLow
Temperature45.5 °F50 °F (11:27 am)37 °F (10:53 pm)
Dewpoint41.9 °F48.2 °F (10:20 am)34 °F (8:53 pm)
Humidity87.7 %100 % (4:53 am)71 % (7:04 pm)
Barometer29.84 in30.01 in (11:45 pm)29.74 in (5:53 am)
Wind Speed3 mph12.7 mph (1:53 am)
Wind Gust19.6 mph (3:53 am)
Weather ElementAverage
Visibility7.9 mi
Wind DirectionNNE (18.7 °)

Weather ElementTotal
Precipitation0.01 in
Heating Degree Days21.5 (Base 65)
Averaged from 39 records on February 13, 2013
WEATHER CONDITIONS BREAKOUT
WIND DIRECTION BREAKOUT
WEATHER BY HOUR - FEBRUARY 13, 2013
[ °C ]   °F
Local TimeTemperatureDewpointHumidityBarometerVisibilityWind DirectionWind SpeedGust SpeedPrecipitationEventsConditions
1:53 AM46.0 °F43.0 °F89 %29.80 in10.0 miEast (100°)12.7 mph18.4 mphOvercast
2:53 AM45.0 °F43.0 °F93 %29.79 in10.0 miEast (100°)8.1 mph16.1 mphOvercast
3:38 AM44.6 °F42.8 °F93 %29.79 in6.0 miVariable6.9 mph18.4 mphOvercast
3:53 AM44.1 °F43.0 °F96 %29.77 in6.0 miEast (100°)8.1 mph19.6 mphOvercast
4:53 AM44.1 °F44.1 °F100 %29.76 in5.0 miESE (110°)3.5 mphOvercast
5:53 AM44.1 °F44.1 °F100 %29.74 in5.0 miEast (100°)4.6 mphOvercast
6:53 AM45.0 °F44.1 °F97 %29.75 in4.0 miESE (110°)3.5 mph0.01 inOvercast
7:53 AM45.0 °F44.1 °F97 %29.77 in3.0 miESE (110°)5.8 mphOvercast
8:03 AM44.6 °F44.6 °F100 %29.77 in2.5 miCalmOvercast
8:19 AM46.4 °F44.6 °F93 %29.76 in4.0 miVariable5.8 mphOvercast
8:53 AM46.0 °F45.0 °F96 %29.78 in3.0 miCalmOvercast
9:00 AM46.4 °F44.6 °F93 %29.79 in1.8 miCalmOvercast
9:18 AM46.4 °F46.4 °F100 %29.80 in3.0 miCalmOvercast
9:36 AM46.4 °F46.4 °F100 %29.80 in2.5 miCalmOvercast
9:53 AM46.9 °F46.9 °F100 %29.79 in4.0 miCalmOvercast
10:04 AM48.2 °F46.4 °F93 %29.81 in8.0 miCalmOvercast
10:20 AM48.2 °F48.2 °F100 %29.81 in10.0 miVariable5.8 mphOvercast
10:35 AM48.2 °F46.4 °F93 %29.80 in10.0 miCalmOvercast
10:53 AM48.9 °F46.9 °F93 %29.81 in10.0 miVariable3.5 mphOvercast
11:27 AM50.0 °F46.4 °F87 %29.81 in10.0 miVariable4.6 mphOvercast
11:53 AM50.0 °F45.0 °F83 %29.80 in10.0 miVariable3.5 mphOvercast
12:22 PM50.0 °F44.6 °F82 %29.81 in10.0 miVariable5.8 mphOvercast
12:53 PM50.0 °F43.0 °F77 %29.80 in10.0 miVariable3.5 mphOvercast
1:01 PM48.2 °F42.8 °F82 %29.82 in10.0 miCalmOvercast
1:53 PM46.9 °F41.0 °F80 %29.81 in10.0 miVariable4.6 mphOvercast
2:53 PM46.9 °F41.0 °F80 %29.81 in10.0 miVariable3.5 mphOvercast
3:53 PM46.9 °F41.0 °F80 %29.83 in10.0 miVariable3.5 mphOvercast
4:53 PM46.9 °F39.9 °F77 %29.85 in10.0 miVariable3.5 mphOvercast
5:41 PM46.4 °F39.2 °F76 %29.88 in10.0 miVariable4.6 mphOvercast
5:53 PM46.0 °F39.0 °F76 %29.88 in10.0 miVariable3.5 mphOvercast
6:53 PM44.1 °F37.0 °F76 %29.92 in10.0 miVariable3.5 mphMostly Cloudy
7:04 PM44.6 °F35.6 °F71 %29.94 in10.0 miCalmOvercast
7:42 PM42.8 °F35.6 °F76 %29.95 in10.0 miCalmOvercast
7:53 PM43.0 °F35.1 °F74 %29.95 in10.0 miCalmOvercast
8:53 PM42.1 °F34.0 °F73 %29.96 in10.0 miVariable3.5 mphOvercast
9:53 PM37.9 °F34.0 °F86 %29.98 in10.0 miCalmMostly Cloudy
10:53 PM37.0 °F34.0 °F89 %29.99 in10.0 miCalmMostly Cloudy
11:45 PM39.2 °F35.6 °F87 %30.01 in10.0 miCalmOvercast
11:53 PM39.9 °F35.1 °F83 %30.00 in10.0 miCalmOvercast
Hourly data recorded from KVPC, located miles away from Cedartown, Georgia







STORIES FROM OUR PARTNERS